EW6174 Weather Reports


time (UTC)temp
F
wind
direction
speed
knots
gust
knots
rain 1hr
in
rain 24hr
in
rain mn
in
humidity
%
barometer
mb
20260507213011 52 245 0.0 1.7 0.00 0.00 0.00 77 1013.4
20260507211509 52 245 0.0 0.9 0.00 0.00 0.00 76 1013.4
20260507210007 53 245 0.0 0.0 0.00 0.00 0.00 75 1013.3
20260507204506 54 245 0.0 0.0 0.00 0.00 0.00 75 1013.0
20260507203009 55 245 0.0 0.0 0.00 0.00 0.00 73 1012.9
20260507201506 55 245 0.0 1.7 0.00 0.00 0.00 71 1012.9
20260507200004 56 245 0.0 0.9 0.00 0.00 0.00 70 1012.7
20260507194504 57 245 0.0 0.9 0.00 0.00 0.00 69 1012.6
20260507193003 58 245 0.0 1.7 0.00 0.00 0.00 68 1012.4
20260507191504 59 245 0.0 1.7 0.00 0.00 0.00 65 1012.3
20260507190004 60 245 0.0 0.9 0.00 0.00 0.00 63 1012.3
20260507184504 61 245 0.0 2.6 0.00 0.00 0.00 62 1012.3
20260507183003 61 245 1.7 3.5 0.00 0.00 0.00 60 1012.3
20260507181605 62 252 1.7 3.5 0.00 0.00 0.00 60 1012.1
20260507180100 63 246 0.9 4.3 0.00 0.00 0.00 59 1012.0
20260507174541 63 251 1.7 4.3 0.00 0.00 0.00 57 1012.0
20260507173035 64 245 2.6 7.0 0.00 0.00 0.00 56 1011.8
20260507171536 64 254 2.6 7.8 0.00 0.00 0.00 55 1011.8
20260507170041 66 260 2.6 7.8 0.00 0.00 0.00 54 1011.8
20260507164533 66 261 4.3 8.7 0.00 0.00 0.00 52 1011.9
20260507163029 66 243 5.2 8.7 0.00 0.00 0.00 51 1011.9
20260507161528 67 259 4.3 7.8 0.00 0.00 0.00 50 1011.9
20260507160027 67 247 3.5 9.6 0.00 0.00 0.00 51 1011.8
20260507154526 68 282 5.2 9.6 0.00 0.00 0.00 48 1011.7
20260507151554 69 261 6.1 9.6 0.00 0.00 0.00 47 1011.8
20260507150054 69 254 5.2 10.4 0.00 0.00 0.00 46 1011.9
20260507144553 69 246 2.6 9.6 0.00 0.00 0.00 46 1012.0
20260507143053 69 247 5.2 8.7 0.00 0.00 0.00 46 1012.0
20260507141552 69 236 5.2 8.7 0.00 0.00 0.00 46 1012.2
20260507140052 69 239 4.3 10.4 0.00 0.00 0.00 47 1012.2
20260507134552 68 231 5.2 12.2 0.00 0.00 0.00 49 1012.3
20260507133048 69 245 4.3 8.7 0.00 0.00 0.00 49 1012.3
20260507131558 70 236 4.3 8.7 0.00 0.00 0.00 48 1012.4
20260507130103 70 257 2.6 8.7 0.00 0.00 0.00 51 1012.4
20260507124552 70 235 5.2 7.8 0.00 0.00 0.00 52 1012.5
20260507123045 70 242 4.3 9.6 0.00 0.00 0.00 52 1012.4
20260507121552 70 274 2.6 7.8 0.00 0.00 0.00 49 1012.3
20260507120045 70 250 2.6 7.8 0.00 0.00 0.00 47 1012.3
20260507114551 70 233 4.3 8.7 0.00 0.00 0.00 48 1012.3
20260507113040 70 296 0.9 7.8 0.00 0.00 0.00 47 1012.2
20260507111539 69 253 2.6 7.8 0.00 0.00 0.00 46 1012.4
20260507110039 69 251 4.3 10.4 0.00 0.00 0.00 45 1012.4
20260507104536 69 271 2.6 7.0 0.00 0.00 0.00 48 1012.6
20260507103033 69 238 2.6 6.1 0.00 0.00 0.00 48 1012.7
20260507101530 68 256 3.5 7.8 0.00 0.00 0.00 48 1012.9
20260507100034 69 273 1.7 4.3 0.00 0.00 0.00 51 1012.9
20260507094523 68 325 1.7 5.2 0.00 0.00 0.00 47 1013.0
20260507093019 67 268 1.7 5.2 0.00 0.00 0.00 50 1013.1
20260507091516 66 244 0.9 4.3 0.00 0.00 0.00 53 1013.0
20260507090019 66 242 0.9 4.3 0.00 0.00 0.00 58 1012.9
20260507084511 65 302 0.0 3.5 0.00 0.00 0.00 59 1012.9
20260507083002 64 298 0.0 2.6 0.00 0.00 0.00 61 1013.0
20260507081604 63 289 0.0 3.5 0.00 0.00 0.00 63 1012.8
20260507080053 63 45 0.0 5.2 0.00 0.00 0.00 66 1012.8
20260507074601 61 248 0.0 1.7 0.00 0.00 0.00 71 1012.9
20260507073044 59 246 0.0 2.6 0.00 0.00 0.00 82 1012.9
20260507071540 57 244 0.0 1.7 0.00 0.00 0.00 90 1012.9
20260507070036 55 245 0.0 0.0 0.00 0.00 0.00 93 1012.7
20260507064532 54 245 0.0 0.0 0.00 0.00 0.00 94 1012.7
20260507063029 52 245 0.0 1.7 0.00 0.00 0.00 94 1012.6
20260507061523 50 244 0.0 0.0 0.00 0.00 0.00 94 1012.6
20260507060026 49 244 0.0 0.0 0.00 0.00 0.00 94 1012.6
20260507054515 48 244 0.0 0.0 0.00 0.00 0.00 94 1012.6
20260507053012 48 244 0.0 0.0 0.00 0.00 0.00 93 1012.5
20260507051510 47 244 0.0 0.0 0.00 0.00 0.00 93 1012.4
20260507050023 48 244 0.0 0.0 0.00 0.00 0.00 93 1012.3
20260507044507 48 244 0.0 0.0 0.00 0.00 0.00 93 1012.2
20260507043004 48 244 0.0 0.0 0.00 0.00 0.00 93 1012.2
20260507041503 49 244 0.0 0.0 0.00 0.00 0.00 93 1012.1
20260507040005 49 244 0.0 0.0 0.00 0.00 0.00 93 1012.1
20260507034500 49 246 0.9 1.7 0.00 0.00 0.00 93 1012.0
20260507033105 49 246 0.0 0.0 0.00 0.00 0.00 92 1011.9
20260507031607 50 246 0.0 0.9 0.00 0.00 0.00 92 1011.9
20260507030059 50 246 0.0 1.7 0.00 0.00 0.00 92 1012.1
20260507024555 51 245 0.0 0.0 0.00 0.00 0.00 92 1011.9
20260507023103 50 245 0.0 0.9 0.00 0.00 0.00 92 1011.8
20260507021552 50 245 0.0 0.0 0.00 0.00 0.00 92 1012.0
20260507020055 51 245 0.0 0.0 0.00 0.00 0.00 92 1012.0
20260507014552 52 245 0.0 0.0 0.00 0.02 0.00 92 1012.1
20260507013046 52 245 0.0 0.0 0.00 0.02 0.00 92 1012.1
20260507011544 52 245 0.0 0.0 0.00 0.02 0.00 91 1012.1
20260507010043 53 245 0.0 0.0 0.00 0.02 0.00 91 1012.2
20260507004540 53 245 0.0 1.7 0.00 0.40 0.00 91 1012.2
20260507003039 53 245 0.0 0.0 0.00 0.40 0.00 90 1012.4
20260507001540 53 245 0.0 0.0 0.00 0.40 0.00 90 1012.3
20260507000039 53 245 0.0 0.0 0.00 0.40 0.00 90 1012.4
20260506234533 53 245 0.0 1.7 0.00 0.56 0.00 89 1012.4
20260506233033 54 245 0.0 0.9 0.00 0.56 0.00 89 1012.6
20260506231528 55 246 0.0 1.7 0.00 0.56 0.00 88 1012.7
20260506230027 55 246 0.0 2.6 0.00 0.56 0.00 88 1012.7
20260506224525 55 242 0.0 3.5 0.00 0.62 0.00 88 1012.7
20260506223024 55 237 0.9 4.3 0.00 0.62 0.00 87 1012.7
20260506221521 56 252 0.0 3.5 0.00 0.62 0.00 86 1012.9
20260506220023 56 253 1.7 7.0 0.00 0.62 0.00 86 1012.7
20260506214517 56 248 2.6 4.3 0.00 0.63 0.62 84 1012.7